Showing default

FENGYUN 1C, 25730

Orbit data source: Space-Track

FENGYUN 1C, 25730 is a payload satellite owned by CNMSC (CN) in SSO that was launched on Mon, 10 May 1999 UTC via a CHANG ZHENG 4B launch vehicle from the Taiyaun Space Center, China (TSC). Payload-class satellites include a variety of spacecraft equipped with specific instruments for various scientific and technological missions. These include communications satellites like Starlink; space stations such as the ISS; scientific satellites like the Hubble; Earth observation satellites from companies like Planet Labs, Umbra, and HawkEye 360; GPS; miniature CubeSats for education and research; and military/defense satellites.

Loading next visibility...
Identifier
25730, 1999-025A
Orbit
SSO
Country
Flag of CNCN / PRC
Related business
Manufacturer
SISE
Mission
Non-operational Civil Imaging
Bus & Motor
FY-1, Unknown motor
Mass
958 kg wet, ~958 kg dry
Launch date (UTC)
1999-05-10 (26 years ago)
Launch vehicle
CHANG ZHENG 4B
Launch site
Taiyaun Space Center, China (TSC)
Object type
Payload
Rocket body
Debris
Shape & HBR
Box + 2 Pan, 4.3 m
Radar Cross Section
5.659 m², Medium (>0.1 m² and < 1m²)

Expand to show TLE details & history
Last TLE update: 18 hours ago

TLE from 18 hours ago
0 FENGYUN 1C
1 25730U 99025A   25311.16739392  .00003868  00000-0  16462-2 0  9990
2 25730  98.8880  16.7128 0010817 163.6072 196.5459 14.25753029366302
Epoch: 2025-11-07T04:01Z
TLE epoch observation values (Epoch: 2025-11-07T04:01:02.834Z)
Latitude
-0.00003°
Longitude
-90.16425°
Altitude
816.33 km
Speed
7.441 km/s
True Right ascension
01h 06m 51s
True Declination
0° 00' 00"
Sunlit
Object was in full shadow at epoch
Visualization orbit readout
Latitude
Unknown
Longitude
Unknown
Altitude
Unknown
Speed
Unknown
Apparent Right ascension
Unknown
Apparent Declination
Unknown
Sunlit
N/A
Visualization observer readout
Local Sidereal Time
17:55:39
Azimuth
Unknown
Elevation
Unknown
Doppler factor
Unknown
Orbital elements
Apogee altitude
810.889 km
Perigee altitude
795.354 km
Semi-major axis
7,181.259 km
Eccentricity
0.00108
Inclination
98.888°
RAAN
16.7128°
Arg. of periapsis
163.6072°
True anomaly
196.51065°
Mean anomaly
196.5459°
Eccentric anomaly
196.52827°
Mean motion
3.5665 °/min
Orbital period
100.94 mins
BSTAR
0.0016462
Loading maneuver chart data...
Computing Atmospheric mass density...

Documentation

Showing up to 5 results
|